Location: Dos Palmas
(32.4468°N, 116.8732°W)
Time: 23:28:18
(UTC+00:00)

ADEOS Rocket - Pass Details

Date: 20 June 2021
Orbit: 858 x 1307 km, 98.7° (Epoch: 01 August)

Event Time Altitude Azimuth Distance (km) Brightness Sun altitude
Exits shadow 11:27:12 18° 226° (SW) 2,661 4.6 -13.7°
Maximum altitude 11:30:44 25° 264° (W) 2,224 4.4 -13.1°
Drops below altitude 10° 11:36:16 10° 317° (NW) 3,029 5.5 -12.2°
Sets 11:39:19 0° 330° (NNW) 3,918 6.3 -11.7°
